TimeMST,TemperatureF,Dew PointF,Humidity,Sea Level PressureIn,VisibilityMPH,Wind Direction,Wind SpeedMPH,Gust SpeedMPH,PrecipitationIn,Events,Conditions,WindDirDegrees,DateUTC
12:53 AM,73.9,66.9,79,29.82,10.0,SSW,3.5,-,N/A,,Clear,210,2013-08-27 07:53:00
1:53 AM,73.0,66.9,81,29.81,10.0,Calm,Calm,-,N/A,,Clear,0,2013-08-27 08:53:00
2:53 AM,72.0,66.0,81,29.81,10.0,SSW,3.5,-,N/A,,Clear,210,2013-08-27 09:53:00
3:53 AM,72.0,66.0,81,29.82,10.0,SSE,5.8,-,N/A,,Clear,150,2013-08-27 10:53:00
4:53 AM,71.1,64.9,81,29.81,10.0,SSE,4.6,-,N/A,,Clear,150,2013-08-27 11:53:00
5:53 AM,69.1,64.9,87,29.82,10.0,Calm,Calm,-,N/A,,Clear,0,2013-08-27 12:53:00
6:53 AM,72.0,64.9,78,29.83,10.0,SSE,5.8,-,N/A,,Clear,150,2013-08-27 13:53:00
7:53 AM,75.9,66.0,71,29.84,10.0,South,9.2,-,N/A,,Clear,170,2013-08-27 14:53:00
8:53 AM,84.0,64.0,51,29.82,10.0,South,9.2,-,N/A,,Clear,170,2013-08-27 15:53:00
9:53 AM,91.9,59.0,33,29.81,10.0,South,9.2,-,N/A,,Clear,170,2013-08-27 16:53:00
10:53 AM,97.0,55.0,24,29.79,10.0,ESE,16.1,23.0,N/A,,Clear,120,2013-08-27 17:53:00
11:53 AM,100.0,53.1,21,29.77,10.0,East,17.3,24.2,N/A,,Clear,100,2013-08-27 18:53:00
12:53 PM,100.0,52.0,20,29.76,10.0,SE,15.0,26.5,N/A,,Clear,140,2013-08-27 19:53:00
1:53 PM,100.9,51.1,19,29.73,10.0,ESE,12.7,23.0,N/A,,Clear,110,2013-08-27 20:53:00
2:53 PM,100.9,48.0,17,29.71,10.0,ESE,11.5,23.0,N/A,,Partly Cloudy,110,2013-08-27 21:53:00
3:53 PM,100.9,50.0,18,29.69,10.0,ESE,15.0,25.3,N/A,,Partly Cloudy,110,2013-08-27 22:53:00
4:53 PM,100.0,48.9,18,29.68,10.0,NE,5.8,-,N/A,,Clear,50,2013-08-27 23:53:00
5:53 PM,99.0,48.0,18,29.69,10.0,ESE,6.9,-,N/A,,Clear,110,2013-08-28 00:53:00
6:53 PM,97.0,46.9,18,29.69,10.0,SSE,9.2,-,N/A,,Clear,150,2013-08-28 01:53:00
7:53 PM,90.0,57.0,33,29.73,10.0,Variable,6.9,-,N/A,,Clear,0,2013-08-28 02:53:00
8:53 PM,90.0,59.0,35,29.75,10.0,Variable,5.8,-,N/A,,Mostly Cloudy,0,2013-08-28 03:53:00
9:53 PM,90.0,55.9,31,29.75,10.0,Calm,Calm,-,N/A,,Clear,0,2013-08-28 04:53:00
10:53 PM,89.1,57.0,34,29.73,10.0,ESE,10.4,-,N/A,,Clear,120,2013-08-28 05:53:00
11:53 PM,86.0,57.9,38,29.74,10.0,South,9.2,19.6,N/A,,Clear,170,2013-08-28 06:53:00